User: anonymous   Login
Location: Aulagny
(45.1643°N, 4.3096°E)
Time: 08:10:08
(UTC+00:00)
Language:

USA 238 DEB - Orbit

View from above orbital plane
View from above orbital plane
View from above satellite
View from above satellite

Ground track
Ground track

The orbit data is extracted from the following two-line orbital elements,

1 38773U 12048P   19333.71706508 0.00000000  00000-0  00000-0 0    09
2 38773  63.4344 182.2038 0109261   2.0984 357.9016 13.40791106    03
Epoch (UTC): 29 November 2019 17:12:34
Eccentricity: 0.0109261
inclination: 63.4344°
perigee height: 1024 km
apogee height: 1188 km
right ascension of ascending node: 182.2038°
argument of perigee: 2.0984°
revolutions per day: 13.40791106
mean anomaly at epoch: 357.9016°
orbit number at epoch: 0

The dashed part of the orbit path shows where the satellite is in the earth's shadow,  

DLR